Вернуться в каталог

STARLINK-32954

АктивенСвязьVLEO
NORAD 63567·PAYLOAD·🇺🇸 United States

Запущен Apr 13, 2025 с Cape Canaveral Space Force Station

Loading…

Ближайшие Пролёты (ближайшие 24 часа)

TLE

СвежийSource: CelesTrak SupGP

Эпоха: Sep 14, 2026, 20:36 UTC

1 63567C 25075V   26257.85881944 -.00008667  00000+0 -31399-3 0  2578
2 63567  43.0002 282.1496 0001552 267.2808 316.0520 15.27576421    14

Отслеживайте STARLINK-32954 в реальном времени с AllMySat

Download on the App Store